Location: Warwick
(41.7000°N, 71.4170°W)
Time: 21:25:52
(UTC-04:00)

BREEZE-M DEB (TANK) - Visible Passes

Search period start: 24 October 2014 00:00
Search period end: 02 November 2014 23:00
Orbit: 282 x 16043 km, 49.5° (Epoch: 24 October)

Date Brightness Start Highest point End Pass type
(mag) Time Alt. Az. Time Alt. Az. Time Alt. Az.
24 Oct 8.8 00:39:43 10° NW 02:20:02 30° WNW 02:41:00 28° W visible
24 Oct 8.3 18:59:41 10° W 21:13:51 86° NE 22:04:33 57° SE visible
25 Oct 8.8 01:00:39 10° NW 02:30:35 26° WNW 02:55:28 23° W visible
25 Oct 8.3 19:16:14 10° W 21:35:12 90° NE 22:19:02 59° SE visible
26 Oct 8.9 01:22:34 10° NW 02:40:46 22° WNW 03:09:58 19° W visible
26 Oct 8.3 19:32:54 10° WNW 21:54:53 86° SW 22:33:35 61° SSE visible
27 Oct 8.9 01:46:04 10° NW 02:50:38 18° WNW 03:24:31 14° W visible
27 Oct 8.3 19:49:41 10° WNW 22:13:12 82° WSW 22:48:11 62° SSE visible
28 Oct 9.0 02:12:39 10° NW 03:00:14 14° WNW 03:38:52 10° W visible
28 Oct 8.8 14:46:34 10° SW 15:21:47 85° SE 18:05:53 10° E visible
28 Oct 8.3 20:06:34 10° WNW 22:30:22 77° WSW 23:02:50 61° S visible
29 Oct 9.1 02:49:03 10° NW 03:09:38 11° WNW 03:28:46 10° WNW visible
29 Oct 8.8 15:01:14 10° SW 15:39:08 89° SE 18:24:19 10° E visible
29 Oct 8.3 20:23:32 10° WNW 22:46:32 73° WSW 23:17:32 60° SSW visible
30 Oct 8.7 15:15:58 10° SW 15:57:15 87° NW 18:41:26 11° E visible
30 Oct 8.3 20:40:37 10° WNW 23:01:46 68° WSW 23:32:18 57° SSW visible
31 Oct 8.7 15:30:48 10° WSW 16:16:17 84° NNW 18:56:14 14° E visible
31 Oct 8.3 20:57:46 10° WNW 23:16:11 63° WSW 23:47:08 53° SSW visible
01 Nov 8.6 15:45:42 10° WSW 16:36:25 82° NNW 19:11:06 16° E visible
01 Nov 8.3 21:15:02 10° WNW 23:29:50 58° W 00:02:01 49° SW visible
02 Nov 8.6 15:00:40 10° WSW 15:57:58 80° NNW 18:26:03 19° ESE visible
02 Nov 8.8 20:32:24 10° NW 22:42:46 53° W 23:00:00 51° WSW visible
